Wind_Speed
5 7 9 12 14 17 19 21 23 24 27 29 30 32 32 35 40 43 47 51 56 60 64 68 71 75 78 80 82 83 83 81 77 72 67 62 59 57 55 54 54 53 52 51
8 10 12 14 17 19 21 23 25 24 25 29 32 33 33 37 42 46 51 55 59 63 67 71 75 78 80 81 82 81 80 76 73 69 65 61 59 58 57 56 56 55 55 54
10 12 14 17 19 20 22 24 27 30 30 30 34 35 35 40 45 50 55 59 63 67 72 75 78 80 81 81 81 79 77 73 69 66 63 61 59 58 56 55 55 55 54 54
12 14 16 18 20 22 24 25 27 30 32 33 34 39 39 45 50 55 59 62 67 71 75 78 79 80 81 80 79 77 73 70 68 66 63 61 58 55 54 52 51 50 50 51
13 16 18 20 22 24 26 28 29 31 32 35 36 42 45 50 55 58 62 66 70 74 76 78 79 80 80 79 77 74 71 68 66 63 60 57 55 53 51 49 48 47 46 47
16 18 19 21 24 26 28 29 30 31 35 39 43 47 49 52 57 61 65 69 72 74 77 78 80 80 79 78 75 72 68 65 63 60 57 55 53 51 49 47 46 45 44 43
17 19 21 23 25 26 28 30 33 36 38 41 43 45 49 54 59 63 67 70 73 76 78 79 80 79 78 76 72 68 65 63 60 57 56 55 53 51 49 47 45 43 42 41
19 20 22 24 26 27 29 30 32 35 38 39 43 48 52 56 60 63 67 72 75 77 78 78 78 78 76 73 69 66 63 61 58 57 56 55 53 51 49 48 46 44 42 40
21 22 24 25 26 28 30 30 32 35 39 43 46 50 53 57 61 65 69 73 75 76 77 77 78 77 74 70 67 64 62 59 58 57 57 55 53 51 49 48 46 43 41 40
22 22 23 24 25 27 29 32 34 36 41 45 47 52 55 58 62 67 71 73 75 76 76 77 77 75 71 67 64 62 60 59 58 58 57 55 53 51 49 46 44 42 40 39
22 22 22 23 25 27 29 31 33 37 40 45 51 54 55 59 64 68 71 73 75 76 76 76 75 72 68 64 62 61 59 59 58 58 57 55 52 49 47 45 43 42 40 39
22 23 23 23 24 26 29 33 35 37 41 44 49 54 57 61 65 69 72 74 75 75 75 75 74 69 65 62 61 60 59 59 58 58 57 54 51 49 46 45 43 43 42 41
23 23 24 24 24 25 28 31 35 38 41 44 48 54 58 63 67 70 72 73 74 74 75 74 71 66 63 61 60 59 59 59 59 58 56 54 51 49 47 46 46 45 45 44
23 23 25 27 29 30 32 34 36 39 42 45 49 54 59 64 67 70 72 73 74 74 74 72 68 64 61 60 59 58 58 59 59 58 56 54 52 50 49 48 49 49 48 47
24 24 25 26 28 30 32 34 36 39 42 45 50 54 60 64 68 71 73 73 73 73 72 70 66 62 60 58 58 58 58 59 59 58 56 55 52 52 51 51 51 52 52 51
27 26 25 26 27 29 31 33 36 38 42 46 51 56 61 66 68 71 72 73 72 72 71 68 64 60 58 57 57 57 58 58 59 58 57 55 53 53 53 54 54 55 55 54
31 30 29 28 29 30 32 36 38 40 43 48 53 57 62 67 69 71 72 72 71 71 69 65 61 59 57 57 57 57 57 58 59 58 57 56 55 55 55 56 58 58 58 57
34 34 32 32 32 33 36 38 40 42 44 50 54 58 63 67 70 71 71 71 70 69 67 63 59 57 56 56 56 56 57 58 59 58 58 57 57 57 57 59 60 61 61 59
37 37 36 35 36 35 36 39 43 45 46 51 55 59 64 67 70 70 70 70 69 67 64 61 58 56 55 55 55 56 56 57 58 58 59 59 58 59 59 61 62 63 62 58
39 38 37 36 37 39 39 42 44 47 49 53 56 60 64 68 69 69 69 68 67 66 63 59 56 55 54 54 54 55 55 56 58 59 59 60 60 60 61 62 64 65 63 59
42 41 38 37 36 37 40 43 45 47 50 53 57 61 65 67 68 68 67 66 66 64 61 58 56 54 53 53 53 54 55 57 57 58 60 61 61 61 62 63 64 65 64 59
46 45 43 42 41 41 43 44 46 48 50 53 57 61 64 67 67 67 66 65 64 63 60 57 54 53 53 52 53 53 54 56 57 58 59 60 61 62 62 63 64 65 64 60
46 46 44 43 41 42 43 44 46 48 50 53 57 61 64 66 66 66 65 64 63 61 58 55 53 52 52 52 52 53 53 55 56 57 58 59 61 62 62 63 64 64 65 62
46 45 44 43 42 42 43 45 46 48 50 53 57 61 64 65 66 65 64 63 62 60 57 54 52 51 51 51 52 52 52 54 55 56 57 58 59 61 62 63 64 64 65 63
48 47 45 43 43 43 43 45 46 48 51 53 57 60 63 65 65 64 63 62 61 58 56 53 51 50 50 50 51 51 51 52 53 55 56 57 58 60 61 63 64 65 65 64
46 47 46 45 45 45 45 46 47 49 51 54 57 60 63 64 64 63 62 61 60 57 55 52 50 49 49 49 50 50 50 51 52 53 54 55 57 59 60 61 63 64 64 63
Wind_Direction
274 289 299 306 310 313 315 316 318 322 322 323 323 325 329 326 324 325 325 324 325 325 324 323 323 322 321 320 319 317 315 314 313 312 310 307 304 300 297 294 291 289 286 284
286 295 301 304 308 311 314 316 317 319 319 321 323 326 329 326 327 327 328 328 328 327 326 326 325 324 323 321 320 319 317 317 315 314 312 309 306 302 298 295 292 289 287 284
292 298 303 306 310 312 315 317 319 321 323 325 324 323 329 328 329 330 331 330 329 329 328 327 326 325 324 323 322 321 320 319 318 317 315 312 309 306 302 298 295 291 288 284
300 303 306 309 311 313 315 317 320 322 324 325 325 323 331 332 331 332 332 331 331 331 330 329 328 327 326 325 324 324 323 322 321 319 317 315 312 309 306 303 299 295 291 286
303 305 307 309 312 314 316 320 323 323 322 323 327 331 337 335 333 333 334 334 333 332 331 330 329 328 328 327 326 326 325 325 324 323 322 320 318 315 312 308 305 301 297 292
306 307 309 311 313 316 318 320 320 323 326 331 336 336 335 335 335 336 336 335 334 333 331 331 330 330 329 329 328 329 328 328 328 327 326 325 323 320 317 314 310 306 301 296
305 307 309 312 314 316 319 323 327 330 333 334 332 331 336 338 338 338 336 334 333 333 333 332 332 331 331 331 331 331 332 332 331 330 329 328 326 324 322 319 316 311 306 301
310 309 310 314 317 320 323 327 329 330 330 328 328 334 339 339 338 336 335 334 335 335 334 333 333 333 332 333 333 334 334 334 333 332 331 330 328 326 324 322 320 317 313 308
313 314 315 318 320 322 324 326 328 328 327 330 334 334 337 338 337 336 336 336 336 336 335 334 334 334 334 335 336 336 336 336 335 334 333 331 329 328 326 324 323 320 317 313
317 316 318 319 322 323 324 326 328 330 331 332 332 335 338 337 337 337 338 337 337 337 336 336 335 336 336 337 337 338 337 337 337 336 335 333 331 330 329 327 325 323 320 317
321 320 321 322 323 323 324 326 329 331 332 333 333 335 337 338 338 339 339 338 338 338 337 337 337 337 338 338 339 339 339 339 338 338 337 335 334 333 332 330 329 327 323 319
327 324 324 325 325 326 328 329 330 332 333 332 332 334 338 339 339 340 339 340 339 339 338 338 338 339 339 339 340 340 340 340 340 340 339 338 336 335 333 331 329 327 324 321
332 329 327 327 328 329 329 329 330 332 332 332 334 335 338 339 340 341 340 341 340 340 339 339 339 340 340 340 341 341 342 342 342 342 342 341 339 337 335 332 329 326 324 320
337 333 331 331 332 333 333 333 332 331 332 333 335 337 340 341 341 341 341 342 341 341 340 340 340 341 341 341 342 343 343 344 344 344 344 343 341 340 337 334 331 328 325 321
342 338 335 332 333 333 331 331 330 331 332 334 337 339 341 341 342 343 342 342 342 341 341 341 341 342 342 343 344 344 345 346 346 346 346 345 343 341 339 337 334 331 327 322
346 342 339 335 333 332 330 330 331 333 334 336 339 341 341 342 343 343 343 343 342 342 342 342 342 343 343 344 345 346 347 348 348 348 348 347 346 344 342 340 337 334 330 325
350 346 343 339 337 335 333 335 335 336 337 339 341 342 342 343 344 344 344 344 343 343 343 343 343 344 345 346 347 348 349 350 351 350 349 349 348 347 345 343 341 338 335 331
352 349 345 342 339 340 337 336 336 338 340 340 341 342 343 343 344 345 344 344 344 344 344 345 345 345 346 347 348 349 350 351 351 351 352 352 351 350 348 347 345 343 341 339
355 350 346 343 340 339 338 338 338 339 341 341 341 342 343 344 344 345 345 345 345 345 346 346 347 347 348 349 350 351 352 352 352 353 354 354 354 353 352 351 350 349 348 347
355 352 347 343 339 338 339 338 339 339 341 342 342 342 343 344 344 345 346 346 346 346 347 348 348 349 350 350 351 353 353 353 354 356 357 357 357 357 356 356 356 355 355 354
354 352 348 343 340 339 339 339 339 339 340 340 341 342 343 344 345 346 346 347 347 348 348 349 350 351 352 352 353 354 354 355 357 358 359 359 359 360 0 0 1 1 1 1
352 351 348 344 342 340 340 338 339 339 339 340 341 342 344 345 345 346 347 348 348 349 350 351 351 352 353 354 355 355 356 357 359 360 1 1 2 3 4 5 5 6 7 7
350 349 347 344 341 339 338 337 337 337 338 339 340 342 344 345 346 347 348 349 350 350 351 352 353 354 355 356 356 357 358 359 1 2 3 3 4 5 7 8 10 10 12 13
348 348 346 343 341 339 337 337 337 337 338 339 340 342 344 345 347 347 348 350 351 351 352 353 354 355 356 357 357 358 360 1 3 4 5 5 6 8 9 11 13 14 16 18
345 346 345 343 341 339 338 337 337 337 338 339 340 342 344 346 347 348 349 351 352 352 353 354 355 356 357 358 359 360 1 3 4 5 7 7 9 10 12 13 15 17 18 20
344 343 342 342 341 340 339 338 337 337 337 339 340 342 344 346 347 349 350 351 352 353 354 355 356 357 358 360 0 1 3 4 6 7 8 10 11 13 14 16 17 18 20 22
Height
5883 5883 5881 5879 5877 5875 5873 5870 5867 5865 5860 5856 5852 5848 5844 5838 5831 5824 5817 5809 5800 5790 5779 5767 5755 5742 5729 5715 5700 5685 5670 5656 5642 5631 5620 5610 5601 5593 5586 5580 5574 5570 5566 5564
5883 5881 5880 5877 5875 5873 5870 5867 5864 5862 5858 5853 5847 5844 5840 5833 5825 5818 5809 5800 5790 5780 5768 5755 5742 5728 5714 5699 5683 5668 5653 5639 5625 5614 5603 5593 5585 5577 5570 5564 5558 5553 5549 5546
5881 5880 5878 5876 5873 5870 5868 5864 5860 5856 5852 5849 5843 5839 5835 5826 5818 5810 5801 5791 5780 5768 5755 5742 5728 5714 5699 5683 5668 5652 5636 5623 5610 5598 5588 5579 5570 5561 5553 5547 5540 5535 5531 5527
5879 5878 5876 5873 5870 5867 5864 5861 5857 5852 5847 5843 5839 5831 5828 5818 5809 5801 5792 5781 5769 5757 5743 5729 5715 5700 5684 5668 5652 5636 5621 5608 5595 5583 5573 5563 5554 5545 5537 5530 5524 5518 5513 5509
5878 5876 5873 5870 5867 5864 5860 5856 5853 5848 5843 5838 5832 5825 5819 5810 5801 5793 5783 5771 5758 5746 5732 5717 5701 5685 5669 5653 5637 5622 5608 5594 5581 5569 5558 5548 5538 5530 5522 5515 5509 5503 5498 5493
5876 5873 5871 5868 5864 5860 5856 5853 5849 5844 5838 5831 5824 5817 5812 5805 5795 5784 5772 5761 5749 5736 5721 5705 5688 5672 5656 5640 5624 5610 5596 5582 5570 5557 5546 5536 5527 5518 5510 5503 5496 5490 5484 5479
5874 5871 5868 5865 5861 5858 5854 5849 5844 5837 5831 5826 5821 5815 5809 5798 5787 5776 5765 5753 5740 5725 5709 5693 5676 5660 5644 5628 5613 5599 5585 5572 5560 5548 5537 5526 5517 5508 5499 5491 5484 5478 5472 5466
5871 5869 5865 5862 5858 5854 5850 5846 5841 5835 5830 5825 5817 5809 5803 5792 5782 5770 5759 5746 5730 5714 5698 5681 5665 5648 5633 5617 5602 5589 5575 5563 5551 5540 5528 5518 5507 5498 5489 5480 5473 5466 5459 5454
5868 5866 5862 5859 5855 5851 5846 5842 5838 5833 5825 5818 5811 5804 5796 5786 5776 5765 5751 5736 5721 5705 5688 5671 5655 5638 5622 5607 5593 5580 5567 5555 5543 5531 5520 5509 5499 5489 5480 5471 5463 5455 5448 5442
5866 5864 5861 5857 5853 5848 5844 5839 5834 5828 5820 5813 5806 5799 5791 5780 5769 5756 5742 5727 5712 5696 5679 5662 5646 5629 5613 5599 5585 5572 5559 5547 5535 5523 5512 5501 5490 5480 5470 5462 5454 5446 5439 5432
5863 5861 5858 5854 5850 5846 5841 5836 5830 5824 5817 5808 5799 5795 5785 5773 5761 5748 5734 5719 5703 5687 5670 5653 5637 5621 5606 5592 5578 5566 5553 5541 5529 5517 5505 5493 5482 5472 5462 5453 5445 5437 5430 5423
5860 5857 5854 5851 5847 5842 5837 5831 5826 5821 5814 5805 5796 5790 5778 5766 5754 5740 5726 5710 5694 5678 5661 5645 5629 5613 5599 5586 5573 5560 5547 5535 5522 5510 5498 5486 5475 5465 5455 5446 5438 5429 5422 5414
5858 5854 5851 5848 5846 5841 5835 5829 5822 5816 5809 5801 5792 5785 5771 5759 5746 5732 5717 5702 5686 5670 5654 5637 5622 5607 5593 5580 5567 5554 5542 5529 5516 5504 5492 5480 5468 5458 5448 5439 5430 5421 5412 5404
5855 5852 5848 5844 5839 5833 5829 5824 5818 5811 5804 5796 5787 5777 5764 5752 5739 5725 5710 5695 5679 5663 5647 5631 5616 5601 5588 5575 5562 5549 5537 5524 5511 5498 5486 5474 5462 5451 5441 5431 5420 5410 5401 5391
5854 5850 5845 5841 5836 5831 5826 5820 5815 5808 5800 5792 5783 5772 5760 5747 5734 5719 5704 5688 5672 5656 5641 5625 5610 5597 5584 5571 5558 5545 5532 5519 5506 5493 5481 5468 5457 5445 5434 5422 5411 5399 5388 5377
5851 5848 5843 5839 5834 5829 5823 5818 5811 5804 5795 5786 5777 5766 5754 5741 5728 5713 5698 5682 5667 5651 5635 5619 5605 5592 5579 5566 5554 5541 5528 5515 5502 5489 5477 5464 5452 5439 5427 5414 5401 5388 5374 5361
5849 5844 5840 5835 5831 5826 5820 5813 5805 5799 5790 5781 5771 5761 5748 5735 5722 5708 5692 5677 5662 5646 5630 5615 5601 5587 5575 5562 5550 5537 5525 5512 5499 5486 5473 5460 5446 5433 5420 5406 5392 5377 5361 5345
5846 5840 5835 5831 5826 5820 5817 5807 5800 5793 5785 5775 5765 5754 5743 5730 5716 5702 5687 5672 5656 5641 5625 5611 5597 5584 5571 5559 5546 5534 5521 5509 5496 5483 5469 5456 5442 5428 5414 5399 5383 5366 5348 5331
5843 5837 5831 5825 5819 5816 5811 5802 5794 5786 5780 5770 5760 5749 5737 5724 5710 5697 5682 5667 5652 5636 5621 5607 5594 5581 5568 5556 5544 5532 5519 5507 5494 5480 5466 5452 5438 5424 5409 5393 5376 5358 5339 5321
5841 5835 5829 5822 5815 5810 5806 5798 5789 5782 5774 5765 5754 5743 5732 5719 5706 5693 5677 5662 5647 5632 5617 5604 5591 5578 5566 5554 5541 5529 5517 5505 5492 5478 5464 5449 5435 5420 5405 5388 5371 5352 5333 5314
5838 5832 5826 5819 5813 5807 5801 5792 5784 5777 5770 5759 5749 5738 5727 5714 5701 5687 5672 5657 5643 5628 5614 5600 5588 5576 5564 5552 5540 5528 5516 5503 5490 5476 5462 5448 5434 5419 5403 5386 5369 5351 5332 5314
5834 5827 5820 5813 5807 5803 5794 5786 5780 5773 5764 5754 5744 5733 5722 5709 5695 5681 5667 5653 5639 5624 5610 5597 5585 5573 5562 5550 5539 5527 5515 5502 5489 5475 5462 5448 5434 5419 5404 5387 5370 5353 5335 5317
5832 5825 5817 5811 5806 5798 5790 5783 5776 5768 5759 5750 5740 5729 5717 5704 5691 5677 5664 5650 5635 5621 5608 5595 5583 5572 5560 5549 5538 5526 5514 5502 5489 5476 5463 5449 5435 5420 5405 5390 5374 5357 5340 5322
5829 5822 5814 5807 5800 5794 5786 5778 5771 5763 5755 5745 5735 5725 5712 5700 5687 5673 5660 5646 5632 5618 5605 5593 5581 5570 5559 5548 5537 5525 5514 5502 5490 5477 5465 5451 5438 5423 5408 5393 5378 5362 5346 5330
5824 5817 5810 5804 5796 5789 5782 5775 5767 5759 5750 5741 5731 5720 5708 5695 5682 5669 5656 5643 5629 5616 5604 5592 5580 5570 5559 5548 5537 5526 5515 5503 5491 5479 5467 5454 5441 5426 5412 5397 5382 5367 5351 5336
5822 5814 5807 5800 5793 5785 5778 5770 5762 5754 5746 5736 5726 5715 5704 5691 5678 5665 5653 5639 5626 5614 5602 5590 5579 5569 5558 5548 5537 5526 5515 5504 5493 5482 5470 5458 5445 5431 5417 5403 5388 5373 5360 5346